Time,TemperatureF,DewpointF,PressureIn,WindDirection,WindDirectionDegrees,WindSpeedMPH,WindSpeedGustMPH,Humidity,HourlyPrecipIn,Conditions,Clouds,dailyrainin,SoftwareType,DateUTC
2013-10-12 00:04:00,65.3,57.2,29.51,SE,135,2.7,3.4,75,0.00,,,0.00,WUHU216HW,2013-10-12 05:04:00,
2013-10-12 00:09:00,65.2,56.7,29.50,SE,135,2.7,3.4,74,0.00,,,0.00,WUHU216HW,2013-10-12 05:09:00,
2013-10-12 00:14:00,64.8,57.1,29.50,SE,135,2.3,3.6,76,0.00,,,0.00,WUHU216HW,2013-10-12 05:14:00,
2013-10-12 00:19:00,64.6,56.9,29.50,SE,143,2.2,3.6,76,0.00,,,0.00,WUHU216HW,2013-10-12 05:19:00,
2013-10-12 00:24:00,64.6,56.9,29.50,SSE,152,2.3,3.4,76,0.00,,,0.00,WUHU216HW,2013-10-12 05:24:00,
2013-10-12 00:29:00,64.4,56.7,29.50,SSE,150,1.9,3.4,76,0.00,,,0.00,WUHU216HW,2013-10-12 05:29:00,
2013-10-12 00:35:00,64.4,56.7,29.50,SE,135,1.6,3.4,76,0.00,,,0.00,WUHU216HW,2013-10-12 05:35:00,
2013-10-12 00:40:00,64.4,57.1,29.50,SSE,158,2.5,3.1,77,0.00,,,0.00,WUHU216HW,2013-10-12 05:40:00,
2013-10-12 00:45:00,64.3,56.9,29.51,SSW,203,2.9,3.6,77,0.00,,,0.00,WUHU216HW,2013-10-12 05:45:00,
2013-10-12 00:50:00,64.3,56.9,29.51,SSE,153,2.1,3.6,77,0.00,,,0.00,WUHU216HW,2013-10-12 05:50:00,
2013-10-12 00:55:00,64.3,56.9,29.51,South,180,1.8,3.1,77,0.00,,,0.00,WUHU216HW,2013-10-12 05:55:00,
2013-10-12 01:00:00,64.3,56.9,29.51,South,169,1.7,2.9,77,0.00,,,0.00,WUHU216HW,2013-10-12 06:00:00,
2013-10-12 01:05:00,64.1,57.1,29.51,SSE,158,2.9,2.9,78,0.00,,,0.00,WUHU216HW,2013-10-12 06:05:00,
2013-10-12 01:10:00,64.1,57.1,29.51,SSE,158,2.5,2.9,78,0.00,,,0.00,WUHU216HW,2013-10-12 06:10:00,
2013-10-12 01:15:00,64.1,57.1,29.51,SSE,158,2.5,3.1,78,0.00,,,0.00,WUHU216HW,2013-10-12 06:15:00,
2013-10-12 01:20:00,64.1,57.1,29.51,SE,135,1.8,3.1,78,0.00,,,0.00,WUHU216HW,2013-10-12 06:20:00,
2013-10-12 01:26:00,64.1,57.1,29.51,SSE,158,1.8,3.4,78,0.00,,,0.00,WUHU216HW,2013-10-12 06:26:00,
2013-10-12 01:31:00,64.1,57.4,29.51,South,177,2.7,3.8,79,0.00,,,0.00,WUHU216HW,2013-10-12 06:31:00,
2013-10-12 01:36:00,64.1,57.1,29.51,SE,135,1.8,3.8,78,0.00,,,0.00,WUHU216HW,2013-10-12 06:36:00,
2013-10-12 01:41:00,64.1,57.4,29.51,SSE,158,1.8,2.5,79,0.00,,,0.00,WUHU216HW,2013-10-12 06:41:00,
2013-10-12 01:46:00,64.3,57.6,29.51,SW,225,2.5,2.5,79,0.00,,,0.00,WUHU216HW,2013-10-12 06:46:00,
2013-10-12 01:51:00,64.3,57.6,29.51,South,180,2.0,2.5,79,0.00,,,0.00,WUHU216HW,2013-10-12 06:51:00,
2013-10-12 01:56:00,64.4,57.8,29.52,SSE,158,2.2,4.5,79,0.00,,,0.00,WUHU216HW,2013-10-12 06:56:00,
2013-10-12 02:01:00,64.4,57.8,29.52,SSE,158,2.0,4.5,79,0.00,,,0.00,WUHU216HW,2013-10-12 07:01:00,
2013-10-12 02:06:00,64.6,58.0,29.52,SSE,159,2.6,3.8,79,0.00,,,0.00,WUHU216HW,2013-10-12 07:06:00,
2013-10-12 02:11:00,64.6,58.0,29.52,SE,135,2.7,3.8,79,0.00,,,0.00,WUHU216HW,2013-10-12 07:11:00,
2013-10-12 02:17:00,64.6,58.0,29.52,SSE,158,3.4,3.4,79,0.00,,,0.00,WUHU216HW,2013-10-12 07:17:00,
2013-10-12 02:22:00,64.4,57.8,29.52,South,180,2.9,3.6,79,0.00,,,0.00,WUHU216HW,2013-10-12 07:22:00,
2013-10-12 02:27:00,64.4,57.8,29.52,SE,141,1.9,4.0,79,0.00,,,0.00,WUHU216HW,2013-10-12 07:27:00,
2013-10-12 02:32:00,64.6,58.3,29.52,SE,141,3.1,4.0,80,0.00,,,0.00,WUHU216HW,2013-10-12 07:32:00,
2013-10-12 02:37:00,64.4,58.1,29.52,ESE,113,3.1,3.8,80,0.00,,,0.00,WUHU216HW,2013-10-12 07:37:00,
2013-10-12 02:42:00,64.4,58.1,29.52,SE,135,1.8,3.8,80,0.00,,,0.00,WUHU216HW,2013-10-12 07:42:00,
2013-10-12 02:47:00,64.4,57.8,29.52,SSE,158,1.8,3.4,79,0.00,,,0.00,WUHU216HW,2013-10-12 07:47:00,
2013-10-12 02:52:00,64.4,58.1,29.52,SSW,203,2.0,3.4,80,0.00,,,0.00,WUHU216HW,2013-10-12 07:52:00,
2013-10-12 02:57:00,64.4,58.1,29.52,SE,135,3.4,4.5,80,0.00,,,0.00,WUHU216HW,2013-10-12 07:57:00,
2013-10-12 03:02:00,64.3,58.0,29.51,SSE,151,2.5,4.5,80,0.00,,,0.00,WUHU216HW,2013-10-12 08:02:00,
2013-10-12 03:07:00,64.4,58.1,29.51,SSE,158,4.7,5.4,80,0.00,,,0.00,WUHU216HW,2013-10-12 08:07:00,
2013-10-12 03:12:00,64.4,58.1,29.51,SSE,153,2.6,5.4,80,0.00,,,0.00,WUHU216HW,2013-10-12 08:12:00,
2013-10-12 03:18:00,64.4,58.1,29.51,SSE,158,3.8,4.7,80,0.00,,,0.00,WUHU216HW,2013-10-12 08:18:00,
2013-10-12 03:23:00,64.3,58.0,29.51,SSE,153,3.3,4.3,80,0.00,,,0.00,WUHU216HW,2013-10-12 08:23:00,
2013-10-12 03:28:00,64.4,58.1,29.51,South,175,2.4,4.3,80,0.00,,,0.00,WUHU216HW,2013-10-12 08:28:00,
2013-10-12 03:33:00,64.4,58.1,29.51,South,181,2.3,3.6,80,0.00,,,0.00,WUHU216HW,2013-10-12 08:33:00,
2013-10-12 03:38:00,64.4,58.1,29.50,SSE,155,2.8,4.3,80,0.00,,,0.00,WUHU216HW,2013-10-12 08:38:00,
2013-10-12 03:43:00,64.4,58.1,29.50,SE,135,1.6,4.3,80,0.00,,,0.00,WUHU216HW,2013-10-12 08:43:00,
2013-10-12 03:48:00,64.4,58.1,29.50,SSE,160,2.2,3.6,80,0.00,,,0.00,WUHU216HW,2013-10-12 08:48:00,
2013-10-12 03:53:00,64.4,58.1,29.50,SSE,158,3.1,3.1,80,0.00,,,0.00,WUHU216HW,2013-10-12 08:53:00,
2013-10-12 03:58:00,64.4,58.1,29.50,SSE,152,2.7,4.0,80,0.00,,,0.00,WUHU216HW,2013-10-12 08:58:00,
2013-10-12 04:03:00,64.3,58.3,29.50,SE,135,3.4,4.0,81,0.00,,,0.00,WUHU216HW,2013-10-12 09:03:00,
2013-10-12 04:08:00,64.1,57.8,29.50,SSE,158,2.9,4.0,80,0.00,,,0.00,WUHU216HW,2013-10-12 09:08:00,
2013-10-12 04:14:00,64.1,57.8,29.50,SSE,167,2.2,4.0,80,0.00,,,0.00,WUHU216HW,2013-10-12 09:14:00,
2013-10-12 04:19:00,64.1,57.8,29.50,South,171,2.0,3.8,80,0.00,,,0.00,WUHU216HW,2013-10-12 09:19:00,
2013-10-12 04:24:00,63.9,57.6,29.50,SSW,196,1.5,4.3,80,0.00,,,0.00,WUHU216HW,2013-10-12 09:24:00,
2013-10-12 04:29:00,63.9,57.6,29.50,South,180,2.7,4.3,80,0.00,,,0.00,WUHU216HW,2013-10-12 09:29:00,
2013-10-12 04:34:00,63.9,58.0,29.50,SSE,158,2.5,3.1,81,0.00,,,0.00,WUHU216HW,2013-10-12 09:34:00,
2013-10-12 04:39:00,63.7,57.8,29.50,SE,140,1.5,3.1,81,0.00,,,0.00,WUHU216HW,2013-10-12 09:39:00,
2013-10-12 04:44:00,63.7,57.8,29.50,SSE,151,1.7,2.7,81,0.00,,,0.00,WUHU216HW,2013-10-12 09:44:00,
2013-10-12 04:49:00,63.7,57.8,29.50,South,172,1.2,2.5,81,0.00,,,0.00,WUHU216HW,2013-10-12 09:49:00,
2013-10-12 04:54:00,63.5,57.6,29.51,SSE,162,1.2,2.2,81,0.00,,,0.00,WUHU216HW,2013-10-12 09:54:00,
2013-10-12 04:59:00,63.5,57.6,29.51,SSE,158,1.0,2.2,81,0.00,,,0.00,WUHU216HW,2013-10-12 09:59:00,
2013-10-12 05:04:00,63.5,57.6,29.51,SE,136,1.1,2.5,81,0.00,,,0.00,WUHU216HW,2013-10-12 10:04:00,
2013-10-12 05:10:00,63.4,57.4,29.51,SSE,158,1.3,2.5,81,0.00,,,0.00,WUHU216HW,2013-10-12 10:10:00,
2013-10-12 05:15:00,63.4,57.4,29.51,SE,135,1.3,1.8,81,0.00,,,0.00,WUHU216HW,2013-10-12 10:15:00,
2013-10-12 05:20:00,63.2,57.6,29.51,SE,135,2.0,3.4,82,0.00,,,0.00,WUHU216HW,2013-10-12 10:20:00,
2013-10-12 05:25:00,63.0,57.1,29.51,SE,135,1.5,3.4,81,0.00,,,0.00,WUHU216HW,2013-10-12 10:25:00,
2013-10-12 05:30:00,63.0,57.4,29.51,SSE,158,1.5,3.4,82,0.00,,,0.00,WUHU216HW,2013-10-12 10:30:00,
2013-10-12 05:35:00,62.8,57.3,29.52,SSE,158,1.1,2.5,82,0.00,,,0.00,WUHU216HW,2013-10-12 10:35:00,
2013-10-12 05:40:00,62.8,57.5,29.52,SSE,158,2.5,2.5,83,0.00,,,0.00,WUHU216HW,2013-10-12 10:40:00,
2013-10-12 05:45:00,62.8,57.5,29.52,SSE,150,1.5,2.9,83,0.00,,,0.00,WUHU216HW,2013-10-12 10:45:00,
2013-10-12 05:50:00,62.6,57.3,29.52,South,172,1.4,2.9,83,0.00,,,0.00,WUHU216HW,2013-10-12 10:50:00,
2013-10-12 05:55:00,62.6,57.7,29.52,SSE,158,4.5,4.5,84,0.00,,,0.00,WUHU216HW,2013-10-12 10:55:00,
2013-10-12 06:00:00,62.6,57.7,29.52,SW,225,2.0,4.5,84,0.00,,,0.00,WUHU216HW,2013-10-12 11:00:00,
2013-10-12 06:06:00,62.8,57.9,29.52,SSW,211,1.2,4.0,84,0.00,,,0.00,WUHU216HW,2013-10-12 11:06:00,
2013-10-12 06:11:00,62.8,57.9,29.52,SSW,193,1.7,3.4,84,0.00,,,0.00,WUHU216HW,2013-10-12 11:11:00,
2013-10-12 06:16:00,62.8,57.9,29.52,SSE,168,2.0,3.4,84,0.00,,,0.00,WUHU216HW,2013-10-12 11:16:00,
2013-10-12 06:21:00,63.0,58.1,29.52,SSW,211,3.0,3.6,84,0.00,,,0.00,WUHU216HW,2013-10-12 11:21:00,
2013-10-12 06:26:00,63.0,58.1,29.52,South,180,2.7,3.6,84,0.00,,,0.00,WUHU216HW,2013-10-12 11:26:00,
2013-10-12 06:31:00,63.0,58.1,29.52,SW,225,3.4,3.4,84,0.00,,,0.00,WUHU216HW,2013-10-12 11:31:00,
2013-10-12 06:36:00,63.0,58.1,29.52,SSW,203,2.5,3.4,84,0.00,,,0.00,WUHU216HW,2013-10-12 11:36:00,
2013-10-12 06:41:00,63.0,58.1,29.51,South,169,2.7,4.0,84,0.00,,,0.00,WUHU216HW,2013-10-12 11:41:00,
2013-10-12 06:46:00,63.0,57.7,29.51,SSW,192,1.3,4.0,83,0.00,,,0.00,WUHU216HW,2013-10-12 11:46:00,
2013-10-12 06:51:00,62.3,57.7,29.52,WSW,248,2.5,2.5,85,0.00,,,0.00,WUHU216HW,2013-10-12 11:51:00,
2013-10-12 06:57:00,62.3,57.7,29.53,WSW,241,0.8,2.9,85,0.00,,,0.00,WUHU216HW,2013-10-12 11:57:00,
2013-10-12 07:02:00,62.3,57.3,29.53,SSW,203,1.3,2.9,84,0.00,,,0.00,WUHU216HW,2013-10-12 12:02:00,
2013-10-12 07:07:00,62.3,57.7,29.52,SE,135,1.2,2.7,85,0.00,,,0.00,WUHU216HW,2013-10-12 12:07:00,
2013-10-12 07:12:00,62.1,57.9,29.53,SW,221,1.9,2.9,86,0.00,,,0.00,WUHU216HW,2013-10-12 12:12:00,
2013-10-12 07:17:00,62.1,57.5,29.53,SSW,213,1.4,3.1,85,0.00,,,0.00,WUHU216HW,2013-10-12 12:17:00,
2013-10-12 07:22:00,62.1,57.5,29.54,SW,225,0.8,3.1,85,0.00,,,0.00,WUHU216HW,2013-10-12 12:22:00,
2013-10-12 07:27:00,62.3,57.7,29.53,SW,225,1.0,1.3,85,0.00,,,0.00,WUHU216HW,2013-10-12 12:27:00,
2013-10-12 07:32:00,62.3,57.7,29.53,SW,225,0.7,1.3,85,0.00,,,0.00,WUHU216HW,2013-10-12 12:32:00,
2013-10-12 07:37:00,62.3,57.7,29.53,SSE,147,1.4,1.8,85,0.00,,,0.00,WUHU216HW,2013-10-12 12:37:00,
2013-10-12 07:42:00,62.1,57.9,29.54,SW,225,2.2,2.2,86,0.00,,,0.00,WUHU216HW,2013-10-12 12:42:00,
2013-10-12 07:47:00,62.3,58.1,29.54,SSW,203,1.6,3.1,86,0.00,,,0.00,WUHU216HW,2013-10-12 12:47:00,
2013-10-12 07:53:00,62.5,58.2,29.54,SSE,158,1.8,3.1,86,0.00,,,0.00,WUHU216HW,2013-10-12 12:53:00,
2013-10-12 07:58:00,62.8,58.6,29.54,SW,225,4.0,4.0,86,0.00,,,0.00,WUHU216HW,2013-10-12 12:58:00,
2013-10-12 08:03:00,62.8,58.6,29.54,SW,214,2.7,4.3,86,0.00,,,0.00,WUHU216HW,2013-10-12 13:03:00,
2013-10-12 08:08:00,63.0,58.8,29.54,WSW,248,3.4,4.3,86,0.00,,,0.00,WUHU216HW,2013-10-12 13:08:00,
2013-10-12 08:13:00,63.0,59.1,29.56,WSW,248,4.5,5.1,87,0.00,,,0.00,WUHU216HW,2013-10-12 13:13:00,
2013-10-12 08:18:00,63.2,59.0,29.56,SW,220,2.5,5.1,86,0.00,,,0.00,WUHU216HW,2013-10-12 13:18:00,
2013-10-12 08:23:00,63.4,59.1,29.56,WSW,248,2.9,3.8,86,0.00,,,0.00,WUHU216HW,2013-10-12 13:23:00,
2013-10-12 08:28:00,63.4,58.8,29.56,South,180,2.5,2.9,85,0.00,,,0.00,WUHU216HW,2013-10-12 13:28:00,
2013-10-12 08:33:00,63.5,59.0,29.56,WSW,248,3.4,3.8,85,0.00,,,0.00,WUHU216HW,2013-10-12 13:33:00,
2013-10-12 08:38:00,63.7,59.5,29.56,SW,235,3.0,4.0,86,0.00,,,0.00,WUHU216HW,2013-10-12 13:38:00,
2013-10-12 08:44:00,63.7,59.5,29.57,West,270,3.4,4.3,86,0.00,,,0.00,WUHU216HW,2013-10-12 13:44:00,
2013-10-12 08:49:00,63.7,59.5,29.57,WSW,252,2.6,4.7,86,0.00,,,0.00,WUHU216HW,2013-10-12 13:49:00,
2013-10-12 08:54:00,63.7,59.5,29.57,West,275,2.9,4.7,86,0.00,,,0.00,WUHU216HW,2013-10-12 13:54:00,
2013-10-12 08:59:00,63.9,59.3,29.57,West,270,2.5,5.6,85,0.00,,,0.00,WUHU216HW,2013-10-12 13:59:00,
2013-10-12 09:04:00,64.1,59.5,29.57,West,270,1.2,5.6,85,0.00,,,0.00,WUHU216HW,2013-10-12 14:04:00,
2013-10-12 09:09:00,64.3,59.7,29.57,WSW,248,1.6,3.6,85,0.00,,,0.00,WUHU216HW,2013-10-12 14:09:00,
2013-10-12 09:14:00,64.4,59.9,29.57,WSW,256,3.8,5.1,85,0.00,,,0.00,WUHU216HW,2013-10-12 14:14:00,
2013-10-12 09:19:00,64.4,59.9,29.57,West,274,1.5,5.1,85,0.00,,,0.00,WUHU216HW,2013-10-12 14:19:00,
2013-10-12 09:24:00,64.8,60.6,29.58,WNW,293,1.8,2.9,86,0.00,,,0.00,WUHU216HW,2013-10-12 14:24:00,
2013-10-12 09:29:00,65.2,60.6,29.57,WSW,245,2.5,4.7,85,0.00,,,0.00,WUHU216HW,2013-10-12 14:29:00,
2013-10-12 09:34:00,65.7,60.8,29.57,NW,315,1.6,4.7,84,0.00,,,0.00,WUHU216HW,2013-10-12 14:34:00,
2013-10-12 09:39:00,65.7,60.8,29.57,WSW,248,2.5,2.5,84,0.00,,,0.00,WUHU216HW,2013-10-12 14:39:00,
2013-10-12 09:45:00,65.9,60.9,29.57,WNW,289,1.3,4.0,84,0.00,,,0.00,WUHU216HW,2013-10-12 14:45:00,
2013-10-12 09:50:00,66.1,61.0,29.58,West,270,2.5,4.0,84,0.00,,,0.00,WUHU216HW,2013-10-12 14:50:00,
2013-10-12 09:55:00,66.2,61.2,29.58,North,0,2.2,3.1,84,0.00,,,0.00,WUHU216HW,2013-10-12 14:55:00,
2013-10-12 10:00:00,66.2,61.2,29.58,WNW,287,1.2,3.1,84,0.00,,,0.00,WUHU216HW,2013-10-12 15:00:00,
2013-10-12 10:05:00,66.2,61.2,29.58,NNW,338,1.6,3.1,84,0.00,,,0.00,WUHU216HW,2013-10-12 15:05:00,
2013-10-12 10:10:00,66.2,61.2,29.58,NW,318,2.1,4.0,84,0.00,,,0.00,WUHU216HW,2013-10-12 15:10:00,
2013-10-12 10:15:00,66.2,61.6,29.58,WNW,293,2.5,4.0,85,0.00,,,0.00,WUHU216HW,2013-10-12 15:15:00,
2013-10-12 10:20:00,66.4,61.4,29.59,West,281,2.9,5.6,84,0.00,,,0.00,WUHU216HW,2013-10-12 15:20:00,
2013-10-12 10:25:00,66.6,61.6,29.59,NW,315,1.8,5.6,84,0.00,,,0.00,WUHU216HW,2013-10-12 15:25:00,
2013-10-12 10:31:00,66.6,61.6,29.59,NNW,338,2.7,2.7,84,0.00,,,0.00,WUHU216HW,2013-10-12 15:31:00,
2013-10-12 10:36:00,66.6,61.6,29.59,NNW,332,2.2,3.8,84,0.00,,,0.00,WUHU216HW,2013-10-12 15:36:00,
2013-10-12 10:41:00,66.4,61.7,29.60,West,270,2.0,3.8,85,0.00,,,0.00,WUHU216HW,2013-10-12 15:41:00,
2013-10-12 10:46:00,66.4,61.4,29.60,NW,309,1.8,3.4,84,0.00,,,0.00,WUHU216HW,2013-10-12 15:46:00,
2013-10-12 10:51:00,66.1,61.0,29.60,NNW,343,2.5,3.4,84,0.00,,,0.00,WUHU216HW,2013-10-12 15:51:00,
2013-10-12 10:56:00,65.7,60.8,29.60,NNW,344,2.0,4.0,84,0.00,,,0.00,WUHU216HW,2013-10-12 15:56:00,
2013-10-12 11:01:00,65.3,59.7,29.61,NNW,346,2.8,5.1,82,0.00,,,0.00,WUHU216HW,2013-10-12 16:01:00,
2013-10-12 11:06:00,64.8,59.2,29.61,North,0,2.9,5.1,82,0.00,,,0.00,WUHU216HW,2013-10-12 16:06:00,
2013-10-12 11:11:00,64.4,58.9,29.61,NNW,335,2.9,4.7,82,0.00,,,0.00,WUHU216HW,2013-10-12 16:11:00,
2013-10-12 11:16:00,63.9,57.2,29.61,NNW,338,2.7,4.7,79,0.00,,,0.00,WUHU216HW,2013-10-12 16:16:00,
2013-10-12 11:21:00,63.7,57.4,29.62,NW,309,2.4,5.1,80,0.00,,,0.00,WUHU216HW,2013-10-12 16:21:00,
2013-10-12 11:26:00,63.7,57.1,29.62,NNW,346,1.3,5.1,79,0.00,,,0.00,WUHU216HW,2013-10-12 16:26:00,
2013-10-12 11:32:00,64.3,56.9,29.62,NNW,338,3.4,4.0,77,0.00,,,0.00,WUHU216HW,2013-10-12 16:32:00,
2013-10-12 11:37:00,64.1,57.1,29.63,WSW,248,3.4,3.4,78,0.00,,,0.00,WUHU216HW,2013-10-12 16:37:00,
2013-10-12 11:42:00,64.4,57.8,29.63,NW,315,2.7,3.4,79,0.00,,,0.00,WUHU216HW,2013-10-12 16:42:00,
2013-10-12 11:47:00,65.2,54.7,29.63,NNW,338,3.4,6.0,69,0.00,,,0.00,WUHU216HW,2013-10-12 16:47:00,
2013-10-12 11:52:00,64.6,54.7,29.63,North,0,3.6,6.0,70,0.00,,,0.00,WUHU216HW,2013-10-12 16:52:00,
2013-10-12 11:57:00,65.0,54.6,29.64,NNW,338,3.4,4.3,69,0.00,,,0.00,WUHU216HW,2013-10-12 16:57:00,
2013-10-12 12:02:00,64.8,55.3,29.63,ENE,78,1.5,3.4,71,0.00,,,0.00,WUHU216HW,2013-10-12 17:02:00,
2013-10-12 12:07:00,65.3,55.7,29.64,NNW,338,0.9,2.9,71,0.00,,,0.00,WUHU216HW,2013-10-12 17:07:00,
2013-10-12 12:12:00,66.1,56.0,29.64,SSW,203,1.6,2.9,70,0.00,,,0.00,WUHU216HW,2013-10-12 17:12:00,
2013-10-12 12:17:00,66.6,55.3,29.64,NNW,338,1.7,2.5,67,0.00,,,0.00,WUHU216HW,2013-10-12 17:17:00,
2013-10-12 12:22:00,67.0,56.9,29.64,ENE,68,2.5,2.9,70,0.00,,,0.00,WUHU216HW,2013-10-12 17:22:00,
2013-10-12 12:28:00,67.5,56.2,29.64,South,191,1.1,2.9,67,0.00,,,0.00,WUHU216HW,2013-10-12 17:28:00,
2013-10-12 12:33:00,68.0,56.7,29.64,North,11,1.7,2.7,67,0.00,,,0.00,WUHU216HW,2013-10-12 17:33:00,
2013-10-12 12:38:00,68.8,57.3,29.64,NNE,23,1.6,2.9,67,0.00,,,0.00,WUHU216HW,2013-10-12 17:38:00,
2013-10-12 12:43:00,69.1,56.8,29.64,West,270,1.0,2.9,65,0.00,,,0.00,WUHU216HW,2013-10-12 17:43:00,
2013-10-12 12:48:00,68.9,56.7,29.63,North,1,1.6,7.6,65,0.00,,,0.00,WUHU216HW,2013-10-12 17:48:00,
2013-10-12 12:53:00,69.5,56.4,29.63,North,353,2.7,7.6,63,0.00,,,0.00,WUHU216HW,2013-10-12 17:53:00,
2013-10-12 12:58:00,70.2,55.3,29.63,NNE,23,1.8,4.5,59,0.00,,,0.00,WUHU216HW,2013-10-12 17:58:00,
2013-10-12 13:03:00,70.4,53.9,29.64,NW,319,3.3,4.3,56,0.00,,,0.00,WUHU216HW,2013-10-12 18:03:00,
2013-10-12 13:08:00,69.8,54.5,29.64,NNW,338,1.8,6.7,58,0.00,,,0.00,WUHU216HW,2013-10-12 18:08:00,
2013-10-12 13:13:00,70.4,53.9,29.64,NW,315,3.4,6.7,56,0.00,,,0.00,WUHU216HW,2013-10-12 18:13:00,
2013-10-12 13:18:00,70.7,55.3,29.64,ESE,113,3.4,3.6,58,0.00,,,0.00,WUHU216HW,2013-10-12 18:18:00,
2013-10-12 13:23:00,70.9,54.9,29.64,NNW,338,2.2,3.6,57,0.00,,,0.00,WUHU216HW,2013-10-12 18:23:00,
2013-10-12 13:29:00,70.9,53.9,29.64,NW,320,3.4,5.4,55,0.00,,,0.00,WUHU216HW,2013-10-12 18:29:00,
2013-10-12 13:34:00,70.9,53.4,29.64,NNW,334,3.2,5.4,54,0.00,,,0.00,WUHU216HW,2013-10-12 18:34:00,
2013-10-12 13:39:00,71.6,55.1,29.63,SSE,158,2.7,4.5,56,0.00,,,0.00,WUHU216HW,2013-10-12 18:39:00,
2013-10-12 13:44:00,72.2,54.0,29.63,NNW,338,4.0,4.0,53,0.00,,,0.00,WUHU216HW,2013-10-12 18:44:00,
2013-10-12 13:49:00,72.5,54.8,29.63,NW,315,3.8,4.0,54,0.00,,,0.00,WUHU216HW,2013-10-12 18:49:00,
2013-10-12 13:54:00,71.6,52.0,29.63,NW,319,2.3,9.6,50,0.00,,,0.00,WUHU216HW,2013-10-12 18:54:00,
2013-10-12 13:59:00,71.5,52.8,29.63,WNW,293,3.8,9.6,52,0.00,,,0.00,WUHU216HW,2013-10-12 18:59:00,
2013-10-12 14:04:00,71.6,52.6,29.64,NNW,338,3.1,5.1,51,0.00,,,0.00,WUHU216HW,2013-10-12 19:04:00,
2013-10-12 14:09:00,71.6,53.0,29.64,NW,314,2.7,5.1,52,0.00,,,0.00,WUHU216HW,2013-10-12 19:09:00,
2013-10-12 14:14:00,72.4,51.5,29.63,WSW,248,4.7,4.7,48,0.00,,,0.00,WUHU216HW,2013-10-12 19:14:00,
2013-10-12 14:19:00,72.2,51.3,29.64,NW,315,3.4,4.9,48,0.00,,,0.00,WUHU216HW,2013-10-12 19:19:00,
2013-10-12 14:24:00,71.8,51.6,29.64,NW,309,2.7,7.6,49,0.00,,,0.00,WUHU216HW,2013-10-12 19:24:00,
2013-10-12 14:30:00,72.5,52.8,29.64,NNW,333,1.6,7.6,50,0.00,,,0.00,WUHU216HW,2013-10-12 19:30:00,
2013-10-12 14:35:00,73.1,52.1,29.64,NNW,343,2.9,4.0,48,0.00,,,0.00,WUHU216HW,2013-10-12 19:35:00,
2013-10-12 14:40:00,72.7,51.2,29.64,WNW,287,4.3,5.6,47,0.00,,,0.00,WUHU216HW,2013-10-12 19:40:00,
2013-10-12 14:45:00,72.7,48.9,29.64,NW,320,2.5,5.6,43,0.00,,,0.00,WUHU216HW,2013-10-12 19:45:00,
2013-10-12 14:50:00,72.7,48.9,29.64,WNW,303,2.8,4.0,43,0.00,,,0.00,WUHU216HW,2013-10-12 19:50:00,
2013-10-12 14:55:00,72.5,47.5,29.64,NNW,336,3.2,4.5,41,0.00,,,0.00,WUHU216HW,2013-10-12 19:55:00,
2013-10-12 15:00:00,72.9,49.0,29.64,WNW,288,1.8,4.5,43,0.00,,,0.00,WUHU216HW,2013-10-12 20:00:00,
2013-10-12 15:05:00,72.7,47.1,29.64,NW,306,3.1,4.5,40,0.00,,,0.00,WUHU216HW,2013-10-12 20:05:00,
2013-10-12 15:10:00,72.5,46.9,29.64,NW,315,4.9,4.9,40,0.00,,,0.00,WUHU216HW,2013-10-12 20:10:00,
2013-10-12 15:15:00,72.7,47.1,29.64,NW,312,2.8,4.9,40,0.00,,,0.00,WUHU216HW,2013-10-12 20:15:00,
2013-10-12 15:20:00,72.4,46.0,29.65,NW,306,2.8,4.7,39,0.00,,,0.00,WUHU216HW,2013-10-12 20:20:00,
2013-10-12 15:25:00,72.9,47.8,29.65,NNE,23,3.1,4.7,41,0.00,,,0.00,WUHU216HW,2013-10-12 20:25:00,
2013-10-12 15:31:00,73.1,48.0,29.65,NNE,23,2.5,4.3,41,0.00,,,0.00,WUHU216HW,2013-10-12 20:31:00,
2013-10-12 15:36:00,72.9,44.2,29.65,WSW,258,5.1,7.2,36,0.00,,,0.00,WUHU216HW,2013-10-12 20:36:00,
2013-10-12 15:41:00,72.5,44.6,29.65,North,10,2.8,7.2,37,0.00,,,0.00,WUHU216HW,2013-10-12 20:41:00,
2013-10-12 15:46:00,72.7,44.8,29.65,NNW,338,2.7,4.7,37,0.00,,,0.00,WUHU216HW,2013-10-12 20:46:00,
2013-10-12 15:51:00,72.4,44.5,29.65,North,6,4.8,8.9,37,0.00,,,0.00,WUHU216HW,2013-10-12 20:51:00,
2013-10-12 15:56:00,72.4,45.3,29.65,NW,308,1.8,8.9,38,0.00,,,0.00,WUHU216HW,2013-10-12 20:56:00,
2013-10-12 16:01:00,72.2,44.4,29.65,NW,321,3.8,4.5,37,0.00,,,0.00,WUHU216HW,2013-10-12 21:01:00,
2013-10-12 16:06:00,72.4,45.3,29.65,North,5,2.3,5.1,38,0.00,,,0.00,WUHU216HW,2013-10-12 21:06:00,
2013-10-12 16:11:00,72.7,46.3,29.66,NNW,338,2.0,5.1,39,0.00,,,0.00,WUHU216HW,2013-10-12 21:11:00,
2013-10-12 16:16:00,72.4,44.5,29.65,NW,315,2.9,3.1,37,0.00,,,0.00,WUHU216HW,2013-10-12 21:16:00,
2013-10-12 16:21:00,72.4,46.0,29.65,North,0,1.6,4.5,39,0.00,,,0.00,WUHU216HW,2013-10-12 21:21:00,
2013-10-12 16:26:00,72.4,46.7,29.66,NE,45,5.1,5.1,40,0.00,,,0.00,WUHU216HW,2013-10-12 21:26:00,
2013-10-12 16:27:00,72.4,46.0,29.66,North,0,2.7,5.1,39,0.00,,,0.00,WUHU216HW,2013-10-12 21:27:00,
2013-10-12 16:32:00,72.5,46.9,29.65,North,349,2.0,5.1,40,0.00,,,0.00,WUHU216HW,2013-10-12 21:32:00,
2013-10-12 16:39:00,72.2,45.8,29.66,NNW,330,1.6,4.3,39,0.00,,,0.00,WUHU216HW,2013-10-12 21:39:00,
2013-10-12 16:46:00,72.0,46.5,29.66,NNW,336,2.0,2.9,40,0.00,,,0.00,WUHU216HW,2013-10-12 21:46:00,
2013-10-12 16:53:00,72.4,47.4,29.66,NNW,339,2.0,3.4,41,0.00,,,0.00,WUHU216HW,2013-10-12 21:53:00,
2013-10-12 17:00:00,72.5,46.9,29.66,North,0,2.5,3.4,40,0.00,,,0.00,WUHU216HW,2013-10-12 22:00:00,
2013-10-12 17:06:00,72.0,46.5,29.66,West,270,2.2,3.4,40,0.00,,,0.00,WUHU216HW,2013-10-12 22:06:00,
2013-10-12 17:13:00,71.6,45.4,29.66,NNW,332,1.8,4.9,39,0.00,,,0.00,WUHU216HW,2013-10-12 22:13:00,
2013-10-12 17:19:00,71.6,46.1,29.66,NNW,331,1.0,4.3,40,0.00,,,0.00,WUHU216HW,2013-10-12 22:19:00,
2013-10-12 17:25:00,71.6,46.1,29.67,NNW,327,0.8,4.0,40,0.00,,,0.00,WUHU216HW,2013-10-12 22:25:00,
2013-10-12 17:32:00,71.8,45.6,29.67,NNE,23,2.5,3.8,39,0.00,,,0.00,WUHU216HW,2013-10-12 22:32:00,
2013-10-12 17:38:00,71.5,46.5,29.67,North,0,0.0,3.8,41,0.00,,,0.00,WUHU216HW,2013-10-12 22:38:00,
2013-10-12 17:45:00,70.7,46.4,29.67,WNW,293,1.6,2.5,42,0.00,,,0.00,WUHU216HW,2013-10-12 22:45:00,
2013-10-12 17:51:00,70.0,47.0,29.67,WNW,302,0.9,2.5,44,0.00,,,0.00,WUHU216HW,2013-10-12 22:51:00,
2013-10-12 17:58:00,69.5,47.1,29.67,West,270,1.1,2.5,45,0.00,,,0.00,WUHU216HW,2013-10-12 22:58:00,
2013-10-12 18:04:00,68.9,46.6,29.67,NW,315,0.0,1.6,45,0.00,,,0.00,WUHU216HW,2013-10-12 23:04:00,
2013-10-12 18:10:00,68.6,46.9,29.67,NW,315,0.0,0.4,46,0.00,,,0.00,WUHU216HW,2013-10-12 23:10:00,
2013-10-12 18:17:00,67.9,46.8,29.68,NW,315,0.0,0.0,47,0.00,,,0.00,WUHU216HW,2013-10-12 23:17:00,
2013-10-12 18:23:00,67.1,46.8,29.68,NW,315,0.0,0.0,48,0.00,,,0.00,WUHU216HW,2013-10-12 23:23:00,
2013-10-12 18:30:00,66.6,47.5,29.68,NW,315,0.0,0.0,50,0.00,,,0.00,WUHU216HW,2013-10-12 23:30:00,
2013-10-12 18:36:00,66.2,47.6,29.68,NNW,338,0.0,0.4,51,0.00,,,0.00,WUHU216HW,2013-10-12 23:36:00,
2013-10-12 18:43:00,65.5,47.4,29.69,NNW,338,0.0,0.4,52,0.00,,,0.00,WUHU216HW,2013-10-12 23:43:00,
2013-10-12 18:49:00,65.0,46.4,29.69,NNW,338,0.0,0.0,51,0.00,,,0.00,WUHU216HW,2013-10-12 23:49:00,
2013-10-12 18:56:00,64.3,46.2,29.69,NNW,338,0.0,0.0,52,0.00,,,0.00,WUHU216HW,2013-10-12 23:56:00,
2013-10-12 19:02:00,63.7,45.2,29.70,NNW,338,0.0,0.0,51,0.00,,,0.00,WUHU216HW,2013-10-13 00:02:00,
2013-10-12 19:09:00,63.2,44.7,29.70,NNW,338,0.0,0.0,51,0.00,,,0.00,WUHU216HW,2013-10-13 00:09:00,
2013-10-12 19:15:00,62.5,46.5,29.70,NNW,338,0.0,0.9,56,0.00,,,0.00,WUHU216HW,2013-10-13 00:15:00,
2013-10-12 19:22:00,62.1,46.6,29.70,WNW,293,0.4,2.0,57,0.00,,,0.00,WUHU216HW,2013-10-13 00:22:00,
2013-10-12 19:28:00,61.7,45.8,29.70,North,0,0.2,2.5,56,0.00,,,0.00,WUHU216HW,2013-10-13 00:28:00,
2013-10-12 19:34:00,61.2,46.8,29.70,NNW,330,0.6,1.6,59,0.00,,,0.00,WUHU216HW,2013-10-13 00:34:00,
2013-10-12 19:39:00,61.2,47.4,29.71,North,0,0.5,1.6,60,0.00,,,0.00,WUHU216HW,2013-10-13 00:39:00,
2013-10-12 19:45:00,61.0,46.2,29.71,North,0,1.8,1.8,58,0.00,,,0.00,WUHU216HW,2013-10-13 00:45:00,
2013-10-12 19:50:00,60.7,46.4,29.71,NNW,342,1.1,1.8,59,0.00,,,0.00,WUHU216HW,2013-10-13 00:50:00,
2013-10-12 19:55:00,59.4,45.1,29.72,NNW,344,1.3,2.0,59,0.00,,,0.00,WUHU216HW,2013-10-13 00:55:00,
2013-10-12 20:00:00,59.2,44.9,29.72,NNW,338,1.1,2.0,59,0.00,,,0.00,WUHU216HW,2013-10-13 01:00:00,
2013-10-12 20:05:00,58.7,44.4,29.72,NNW,338,0.8,1.8,59,0.00,,,0.00,WUHU216HW,2013-10-13 01:05:00,
2013-10-12 20:11:00,58.3,44.6,29.72,North,358,1.1,1.8,60,0.00,,,0.00,WUHU216HW,2013-10-13 01:11:00,
2013-10-12 20:16:00,57.8,44.5,29.72,NNW,338,0.0,1.8,61,0.00,,,0.00,WUHU216HW,2013-10-13 01:16:00,
2013-10-12 20:21:00,58.0,43.3,29.72,NW,321,0.9,1.8,58,0.00,,,0.00,WUHU216HW,2013-10-13 01:21:00,
2013-10-12 20:26:00,58.3,43.6,29.73,NW,315,0.7,1.8,58,0.00,,,0.00,WUHU216HW,2013-10-13 01:26:00,
2013-10-12 20:31:00,58.7,43.9,29.73,NW,315,0.0,1.1,58,0.00,,,0.00,WUHU216HW,2013-10-13 01:31:00,
2013-10-12 20:37:00,58.5,42.4,29.73,NNW,337,1.4,2.7,55,0.00,,,0.00,WUHU216HW,2013-10-13 01:37:00,
2013-10-12 20:42:00,58.5,43.3,29.73,NNW,338,0.2,2.7,57,0.00,,,0.00,WUHU216HW,2013-10-13 01:42:00,
2013-10-12 20:47:00,58.7,43.9,29.73,NNE,23,0.0,1.1,58,0.00,,,0.00,WUHU216HW,2013-10-13 01:47:00,
2013-10-12 20:52:00,58.7,43.5,29.74,NNW,338,0.4,1.1,57,0.00,,,0.00,WUHU216HW,2013-10-13 01:52:00,
2013-10-12 20:57:00,58.7,43.5,29.74,NW,321,0.5,2.2,57,0.00,,,0.00,WUHU216HW,2013-10-13 01:57:00,
2013-10-12 21:03:00,58.5,43.7,29.74,NNW,338,0.3,2.2,58,0.00,,,0.00,WUHU216HW,2013-10-13 02:03:00,
2013-10-12 21:08:00,58.5,43.7,29.74,NNW,338,0.3,1.1,58,0.00,,,0.00,WUHU216HW,2013-10-13 02:08:00,
2013-10-12 21:13:00,58.3,43.6,29.74,NNW,338,0.0,0.4,58,0.00,,,0.00,WUHU216HW,2013-10-13 02:13:00,
2013-10-12 21:18:00,58.0,43.3,29.75,NNE,23,0.5,1.1,58,0.00,,,0.00,WUHU216HW,2013-10-13 02:18:00,
2013-10-12 21:23:00,57.8,42.7,29.75,NW,315,1.1,1.1,57,0.00,,,0.00,WUHU216HW,2013-10-13 02:23:00,
2013-10-12 21:29:00,57.6,42.5,29.75,WNW,293,0.4,1.6,57,0.00,,,0.00,WUHU216HW,2013-10-13 02:29:00,
2013-10-12 21:34:00,57.8,43.1,29.75,WNW,293,0.0,1.1,58,0.00,,,0.00,WUHU216HW,2013-10-13 02:34:00,
2013-10-12 21:39:00,57.6,43.4,29.76,WNW,293,0.0,0.4,59,0.00,,,0.00,WUHU216HW,2013-10-13 02:39:00,
2013-10-12 21:44:00,57.4,43.3,29.75,WNW,293,0.0,0.4,59,0.00,,,0.00,WUHU216HW,2013-10-13 02:44:00,
2013-10-12 21:49:00,56.9,41.8,29.76,NW,315,0.0,0.0,57,0.00,,,0.00,WUHU216HW,2013-10-13 02:49:00,
2013-10-12 21:55:00,56.7,42.6,29.76,NW,315,0.7,1.1,59,0.00,,,0.00,WUHU216HW,2013-10-13 02:55:00,
2013-10-12 22:00:00,56.7,43.0,29.76,NW,315,0.0,1.1,60,0.00,,,0.00,WUHU216HW,2013-10-13 03:00:00,
2013-10-12 22:05:00,56.5,43.2,29.77,North,0,1.1,1.1,61,0.00,,,0.00,WUHU216HW,2013-10-13 03:05:00,
2013-10-12 22:10:00,56.3,44.3,29.77,North,0,0.0,1.1,64,0.00,,,0.00,WUHU216HW,2013-10-13 03:10:00,
2013-10-12 22:15:00,55.8,43.7,29.77,North,0,0.4,0.9,64,0.00,,,0.00,WUHU216HW,2013-10-13 03:15:00,
2013-10-12 22:21:00,55.3,43.3,29.77,North,0,0.0,0.9,64,0.00,,,0.00,WUHU216HW,2013-10-13 03:21:00,
2013-10-12 22:26:00,55.3,44.5,29.78,North,0,0.0,0.0,67,0.00,,,0.00,WUHU216HW,2013-10-13 03:26:00,
2013-10-12 22:31:00,55.1,43.9,29.78,NNW,338,0.0,0.0,66,0.00,,,0.00,WUHU216HW,2013-10-13 03:31:00,
2013-10-12 22:36:00,55.1,43.9,29.78,NNW,338,0.0,0.2,66,0.00,,,0.00,WUHU216HW,2013-10-13 03:36:00,
2013-10-12 22:41:00,55.1,43.1,29.78,WNW,293,0.0,0.2,64,0.00,,,0.00,WUHU216HW,2013-10-13 03:41:00,
2013-10-12 22:47:00,55.3,43.3,29.78,WNW,293,0.0,0.0,64,0.00,,,0.00,WUHU216HW,2013-10-13 03:47:00,
2013-10-12 22:52:00,54.9,42.9,29.78,WNW,293,0.0,0.0,64,0.00,,,0.00,WUHU216HW,2013-10-13 03:52:00,
2013-10-12 22:57:00,54.7,43.6,29.78,WNW,293,0.0,0.0,66,0.00,,,0.00,WUHU216HW,2013-10-13 03:57:00,
2013-10-12 23:02:00,54.5,42.6,29.78,WNW,293,0.0,0.0,64,0.00,,,0.00,WUHU216HW,2013-10-13 04:02:00,
2013-10-12 23:07:00,54.5,42.6,29.79,SSW,203,0.0,0.0,64,0.00,,,0.00,WUHU216HW,2013-10-13 04:07:00,
2013-10-12 23:13:00,54.4,43.2,29.79,SSW,203,0.4,0.7,66,0.00,,,0.00,WUHU216HW,2013-10-13 04:13:00,
2013-10-12 23:18:00,54.2,42.2,29.79,WSW,248,0.0,0.7,64,0.00,,,0.00,WUHU216HW,2013-10-13 04:18:00,
2013-10-12 23:23:00,54.0,42.0,29.79,SW,225,0.0,0.0,64,0.00,,,0.00,WUHU216HW,2013-10-13 04:23:00,
2013-10-12 23:28:00,54.0,42.5,29.79,SW,225,0.0,0.0,65,0.00,,,0.00,WUHU216HW,2013-10-13 04:28:00,
2013-10-12 23:33:00,54.0,42.0,29.80,WSW,248,0.3,0.9,64,0.00,,,0.00,WUHU216HW,2013-10-13 04:33:00,
2013-10-12 23:39:00,54.0,42.0,29.80,ENE,68,1.0,1.3,64,0.00,,,0.00,WUHU216HW,2013-10-13 04:39:00,
2013-10-12 23:44:00,53.8,43.1,29.80,ENE,68,0.3,1.3,67,0.00,,,0.00,WUHU216HW,2013-10-13 04:44:00,
2013-10-12 23:49:00,53.6,42.5,29.80,WNW,293,0.0,0.4,66,0.00,,,0.00,WUHU216HW,2013-10-13 04:49:00,
2013-10-12 23:54:00,53.3,41.8,29.80,East,90,0.2,0.7,65,0.00,,,0.00,WUHU216HW,2013-10-13 04:54:00,
2013-10-12 23:59:00,52.9,41.9,29.80,SE,135,0.4,0.9,66,0.00,,,0.00,WUHU216HW,2013-10-13 04:59:00,